Voltar ao catálogo

STARLINK-36168

AtivoComunicaçõesSSO
NORAD 68677·PAYLOAD·🇺🇸 United States

Lançado Apr 11, 2026 de Vandenberg Space Force Base

Loading…

Próximas Passagens (próximas 24 horas)

TLE

AtualizadoSource: CelesTrak SupGP

Época: Sep 14, 2026, 22:41 UTC

1 68677C 26077R   26257.94562500  .00056282  00000+0  17477-2 0  2576
2 68677  97.2845 127.9362 0001742  96.2287 240.3241 15.33400521    10

Acompanhe STARLINK-36168 em tempo real com AllMySat

Download on the App Store